Home > Weather > Perth > Past weeks

Flag for Australia Weather for the Past 2 Weeks in Perth, Western Australia, Australia

Now
79 °F

Clear.


Feels Like: 78 °F
Forecast: 68 / 92 °F
Wind: 8 mph from South

Location: Belmont Perth Airport

Current Time: Feb 14, 2016 at 9:03:27 PM

Latest Report: Feb 14, 2016 at 8:30 PM


Visibility: 10 mi

Pressure: 30.07 "Hg

Humidity: 24%

Dew point: 39 °F

Location of PerthLocation

Historic Weather in Perth — Graph

°F

Perth Temperature Yesterday

Maximum temperature yesterday: 88 °F (at 3:00 PM)
Minimum temperature yesterday: 68 °F (at 1:30 AM)
Average temperature yesterday: 77 °F

High & Low Weather Summary for the Past Weeks

 TemperatureHumidityPressure
High108 °F (Feb 8, 1:30 PM)94% (Jan 31, 3:00 AM)30.18 "Hg (Jan 31, 3:00 AM)
Low45 °F (Feb 1, 6:00 AM)7% (Feb 8, 3:00 PM)29.56 "Hg (Jan 31, 2:00 AM)
Average78 °F44%29.94 "Hg
* Reported Jan 30 8:00 PM — Feb 14 8:00 PM, Perth, Weather by CustomWeather, © 2016

Note: Actual official high and low records may vary slightly from our data, if they occured in-between our weather recording intervals... More about our weather records

Advertising

Perth Weather History for the Previous 24 Hours

 ConditionsComfort  
Time TempWeatherWind HumidityBarometerVisibility
8:00 PM
Sun, Feb 14
79 °FClear.12 mph28%30.07 "Hg10 mi
7:30 PM81 °FClear.13 mph24%30.07 "Hg10 mi
7:00 PM84 °FClear.15 mph19%30.04 "Hg10 mi
6:30 PM86 °FClear.18 mph19%30.04 "Hg10 mi
6:00 PM88 °FSunny.14 mph17%30.01 "Hg10 mi
5:30 PM88 °FSunny.20 mph19%30.01 "Hg10 mi
5:00 PM90 °FSunny.16 mph18%30.01 "Hg10 mi
4:30 PM90 °FSunny.10 mph20%30.01 "Hg10 mi
4:00 PM90 °FSunny.14 mph20%30.01 "Hg10 mi
3:30 PM88 °FSunny.13 mph21%30.04 "Hg10 mi
3:00 PM88 °FSunny.8 mph21%30.04 "Hg10 mi
2:30 PM88 °FSunny.15 mph21%30.04 "Hg10 mi
2:00 PM88 °FSunny.16 mph21%30.07 "Hg10 mi
1:30 PM86 °FSunny.13 mph22%30.07 "Hg10 mi
1:00 PM84 °FSunny.17 mph25%30.09 "Hg10 mi
12:30 PM82 °FSunny.13 mph26%30.09 "Hg10 mi
12:00 PM81 °FSunny.15 mph28%30.09 "Hg10 mi
11:30 AM82 °FSunny.15 mph28%30.12 "Hg10 mi
11:00 AM79 °FSunny.18 mph30%30.12 "Hg10 mi
10:00 AM75 °FSunny.17 mph34%30.12 "Hg10 mi
9:00 AM72 °FSunny.15 mph41%30.15 "Hg10 mi
8:30 AM68 °FSunny.18 mph46%30.18 "Hg10 mi
8:00 AM66 °FSunny.15 mph49%30.18 "Hg10 mi
7:00 AM64 °FSunny.13 mph52%30.18 "Hg10 mi
6:30 AM63 °FSunny.12 mph56%30.15 "Hg10 mi
6:00 AM63 °FSunny.8 mph56%30.15 "Hg10 mi
5:30 AM63 °FSunny.9 mph56%30.15 "Hg10 mi
5:00 AM63 °FSunny.18 mph52%30.15 "Hg10 mi
4:00 AM63 °FClear.17 mph56%30.12 "Hg10 mi
3:30 AM63 °FClear.17 mph56%30.09 "Hg10 mi
3:00 AM64 °FClear.12 mph52%30.09 "Hg10 mi
2:30 AM64 °FClear.14 mph52%30.09 "Hg10 mi
2:00 AM66 °FClear.16 mph49%30.12 "Hg10 mi
1:30 AM68 °FClear.13 mph46%30.09 "Hg10 mi
1:00 AM68 °FClear.8 mph46%30.09 "Hg10 mi
12:30 AM70 °FClear.14 mph40%30.09 "Hg10 mi
12:00 AM72 °FClear.15 mph36%30.09 "Hg10 mi
11:30 PM
Sat, Feb 13
73 °FClear.16 mph33%30.09 "Hg10 mi
11:00 PM73 °FClear.10 mph33%30.09 "Hg10 mi
10:30 PM73 °FClear.10 mph36%30.09 "Hg10 mi
10:00 PM75 °FClear.12 mph31%30.09 "Hg10 mi
9:30 PM77 °FClear.13 mph28%30.09 "Hg10 mi
9:00 PM77 °FClear.12 mph26%30.09 "Hg10 mi
Weather by CustomWeather, © 2016

See weather overviewHow to use our weather pages